TimePDT,TemperatureF,Dew PointF,Humidity,Sea Level PressureIn,VisibilityMPH,Wind Direction,Wind SpeedMPH,Gust SpeedMPH,PrecipitationIn,Events,Conditions,WindDirDegrees,DateUTC
12:51 AM,69.1,50.0,51,29.85,10.0,Calm,Calm,-,N/A,,Clear,0,2013-08-25 07:51:00
1:51 AM,66.9,48.0,51,29.84,10.0,Calm,Calm,-,N/A,,Clear,0,2013-08-25 08:51:00
2:51 AM,66.9,48.0,51,29.83,10.0,Calm,Calm,-,N/A,,Clear,0,2013-08-25 09:51:00
3:51 AM,64.9,50.0,58,29.84,10.0,Calm,Calm,-,N/A,,Clear,0,2013-08-25 10:51:00
4:51 AM,64.0,48.9,58,29.84,10.0,West,3.5,-,N/A,,Clear,280,2013-08-25 11:51:00
5:51 AM,64.0,48.0,56,29.85,10.0,Calm,Calm,-,N/A,,Clear,0,2013-08-25 12:51:00
6:51 AM,63.0,48.9,60,29.86,10.0,Calm,Calm,-,N/A,,Clear,0,2013-08-25 13:51:00
7:51 AM,66.9,48.0,51,29.87,10.0,Calm,Calm,-,N/A,,Clear,0,2013-08-25 14:51:00
8:51 AM,75.0,46.0,36,29.88,10.0,ESE,3.5,-,N/A,,Clear,120,2013-08-25 15:51:00
9:51 AM,80.1,45.0,29,29.88,10.0,Calm,Calm,-,N/A,,Clear,0,2013-08-25 16:51:00
10:51 AM,84.9,53.1,33,29.88,10.0,Calm,Calm,-,N/A,,Clear,0,2013-08-25 17:51:00
11:51 AM,90.0,57.0,33,29.87,10.0,SE,6.9,-,N/A,,Clear,140,2013-08-25 18:51:00
12:51 PM,93.0,54.0,27,29.86,10.0,SSE,11.5,-,N/A,,Clear,160,2013-08-25 19:51:00
1:51 PM,93.0,48.0,21,29.85,10.0,SE,8.1,16.1,N/A,,Clear,130,2013-08-25 20:51:00
2:51 PM,93.9,44.1,18,29.83,10.0,SE,6.9,-,N/A,,Clear,130,2013-08-25 21:51:00
3:51 PM,95.0,34.0,12,29.81,10.0,ESE,9.2,-,N/A,,Clear,110,2013-08-25 22:51:00
4:51 PM,93.9,35.1,13,29.81,10.0,ESE,12.7,-,N/A,,Clear,120,2013-08-25 23:51:00
5:51 PM,90.0,28.0,11,29.81,10.0,SE,15.0,-,N/A,,Clear,140,2013-08-26 00:51:00
6:51 PM,84.0,34.0,17,29.83,10.0,SE,11.5,-,N/A,,Clear,130,2013-08-26 01:51:00
7:51 PM,80.1,37.0,21,29.86,10.0,East,5.8,-,N/A,,Clear,100,2013-08-26 02:51:00
8:51 PM,79.0,39.9,25,29.89,10.0,East,9.2,-,N/A,,Clear,90,2013-08-26 03:51:00
9:51 PM,75.9,43.0,31,29.90,10.0,East,4.6,-,N/A,,Clear,90,2013-08-26 04:51:00
10:51 PM,73.9,45.0,35,29.90,10.0,Calm,Calm,-,N/A,,Clear,0,2013-08-26 05:51:00
11:51 PM,73.0,45.0,37,29.89,10.0,Calm,Calm,-,N/A,,Clear,0,2013-08-26 06:51:00